Time,TemperatureF,DewpointF,PressureIn,WindDirection,WindDirectionDegrees,WindSpeedMPH,WindSpeedGustMPH,Humidity,HourlyPrecipIn,Conditions,Clouds,dailyrainin,SoftwareType,DateUTC
2013-08-15 00:01:00,65.0,60.0,29.44,West,270,0.0,1.0,83,0.03,,,0.03,,2013-08-15 07:01:00,
2013-08-15 00:11:00,65.0,60.0,29.44,West,270,0.0,1.0,83,0.03,,,0.03,,2013-08-15 07:11:00,
2013-08-15 00:21:00,65.0,60.0,29.44,West,270,0.0,1.0,83,0.03,,,0.03,,2013-08-15 07:21:00,
2013-08-15 00:52:00,65.0,59.0,29.44,North,0,0.0,0.0,82,0.00,,,0.03,,2013-08-15 07:52:00,
2013-08-15 01:11:00,65.0,60.0,29.44,East,90,0.0,0.0,83,0.00,,,0.03,,2013-08-15 08:11:00,
2013-08-15 01:21:00,65.0,60.0,29.44,East,90,0.0,0.0,83,0.00,,,0.03,,2013-08-15 08:21:00,
2013-08-15 01:32:00,65.0,60.0,29.44,East,90,0.0,0.0,83,0.00,,,0.03,,2013-08-15 08:32:00,
2013-08-15 01:52:00,64.0,59.0,29.45,ESE,113,0.0,1.0,84,0.00,,,0.03,,2013-08-15 08:52:00,
2013-08-15 02:11:00,64.0,59.0,29.44,ESE,113,1.0,2.0,85,0.00,,,0.03,,2013-08-15 09:11:00,
2013-08-15 02:21:00,64.0,59.0,29.43,SE,135,1.0,2.0,85,0.00,,,0.03,,2013-08-15 09:21:00,
2013-08-15 02:53:00,64.0,59.0,29.43,South,180,0.0,0.0,85,0.00,,,0.03,,2013-08-15 09:53:00,
2013-08-15 03:11:00,64.0,59.0,29.44,South,180,0.0,0.0,85,0.00,,,0.03,,2013-08-15 10:11:00,
2013-08-15 03:22:00,64.0,59.0,29.44,ESE,113,0.0,0.0,85,0.00,,,0.03,,2013-08-15 10:22:00,
2013-08-15 03:52:00,64.0,59.0,29.44,West,270,0.0,0.0,85,0.00,,,0.03,,2013-08-15 10:52:00,
2013-08-15 04:02:00,64.0,59.0,29.44,West,270,0.0,0.0,85,0.00,,,0.03,,2013-08-15 11:02:00,
2013-08-15 04:11:00,64.0,59.0,29.44,West,270,0.0,0.0,85,0.00,,,0.03,,2013-08-15 11:11:00,
2013-08-15 04:22:00,64.0,60.0,29.44,East,90,0.0,2.0,87,0.00,,,0.03,,2013-08-15 11:22:00,
2013-08-15 04:42:00,64.0,60.0,29.44,ESE,113,1.0,1.0,87,0.00,,,0.03,,2013-08-15 11:42:00,
2013-08-15 04:52:00,64.0,60.0,29.44,ESE,113,1.0,1.0,87,0.00,,,0.03,,2013-08-15 11:52:00,
2013-08-15 05:11:00,64.0,60.0,29.42,East,90,0.0,1.0,87,0.00,,,0.03,,2013-08-15 12:11:00,
2013-08-15 05:21:00,64.0,60.0,29.42,North,0,0.0,0.0,87,0.00,,,0.03,,2013-08-15 12:21:00,
2013-08-15 05:51:00,64.0,60.0,29.44,ESE,113,0.0,0.0,87,0.00,,,0.03,,2013-08-15 12:51:00,
2013-08-15 06:11:00,64.0,60.0,29.43,East,90,1.0,1.0,87,0.00,,,0.03,,2013-08-15 13:11:00,
2013-08-15 06:21:00,64.0,60.0,29.43,East,90,0.0,1.0,87,0.00,,,0.03,,2013-08-15 13:21:00,
2013-08-15 06:52:00,64.0,60.0,29.44,East,90,0.0,1.0,87,0.00,,,0.03,,2013-08-15 13:52:00,
2013-08-15 07:11:00,64.0,60.0,29.45,East,90,1.0,1.0,87,0.00,,,0.03,,2013-08-15 14:11:00,
2013-08-15 07:22:00,64.0,60.0,29.45,ESE,113,0.0,1.0,87,0.00,,,0.03,,2013-08-15 14:22:00,
2013-08-15 08:12:00,65.0,61.0,29.45,WNW,293,0.0,0.0,87,0.00,,,0.03,,2013-08-15 15:12:00,
2013-08-15 08:22:00,66.0,61.0,29.45,ENE,68,0.0,0.0,85,0.00,,,0.03,,2013-08-15 15:22:00,
2013-08-15 08:54:00,67.0,61.0,29.45,ESE,113,0.0,0.0,82,0.00,,,0.03,,2013-08-15 15:54:00,
2013-08-15 09:13:00,67.0,61.0,29.46,SW,225,0.0,2.0,81,0.00,,,0.03,,2013-08-15 16:13:00,
2013-08-15 09:25:00,68.0,62.0,29.46,NW,315,0.0,1.0,80,0.00,,,0.03,,2013-08-15 16:25:00,
2013-08-15 09:55:00,68.0,61.0,29.47,ESE,113,0.0,2.0,79,0.00,,,0.03,,2013-08-15 16:55:00,
2013-08-15 10:18:00,68.0,62.0,29.46,SE,135,0.0,0.0,81,0.00,,,0.03,,2013-08-15 17:18:00,
2013-08-15 10:24:00,-999.0,-99.9,29.46,ESE,113,1.0,1.0,-999,0.03,,,0.06,,2013-08-15 17:24:00,
2013-08-15 10:30:00,68.0,-99.9,29.46,East,90,0.0,1.0,81,0.03,,,0.06,,2013-08-15 17:30:00,
2013-08-15 10:51:00,69.0,63.0,29.46,ESE,113,1.0,1.0,81,0.03,,,0.06,,2013-08-15 17:51:00,
2013-08-15 11:00:00,-999.0,-99.9,29.46,ESE,113,1.0,1.0,-999,-99.99,,,-99.99,,2013-08-15 18:00:00,
2013-08-15 11:09:00,69.0,63.0,29.46,ESE,113,1.0,1.0,81,0.03,,,0.06,,2013-08-15 18:09:00,
2013-08-15 11:20:00,69.0,63.0,29.46,ESE,113,1.0,1.0,81,0.03,,,0.06,,2013-08-15 18:20:00,
2013-08-15 19:22:00,70.0,64.0,29.47,West,270,0.0,0.0,80,0.00,,,0.06,,2013-08-16 02:22:00,
2013-08-15 19:44:00,69.0,63.0,29.46,SW,225,0.0,0.0,81,0.00,,,0.09,,2013-08-16 02:44:00,
2013-08-15 19:52:00,69.0,63.0,29.47,SW,225,0.0,0.0,81,0.00,,,0.09,,2013-08-16 02:52:00,
2013-08-15 20:21:00,69.0,63.0,29.47,West,270,0.0,0.0,80,0.00,,,0.09,,2013-08-16 03:21:00,
2013-08-15 20:53:00,68.0,62.0,29.47,North,0,0.0,0.0,80,0.00,,,0.09,,2013-08-16 03:53:00,
2013-08-15 21:23:00,67.0,61.0,29.48,East,90,0.0,0.0,82,0.00,,,0.09,,2013-08-16 04:23:00,
2013-08-15 21:53:00,66.0,61.0,29.49,ESE,113,0.0,0.0,84,0.00,,,0.09,,2013-08-16 04:53:00,
2013-08-15 22:02:00,66.0,61.0,29.49,ESE,113,0.0,0.0,84,0.00,,,0.09,,2013-08-16 05:02:00,
2013-08-15 22:11:00,66.0,61.0,29.49,ESE,113,0.0,0.0,84,0.00,,,0.09,,2013-08-16 05:11:00,
2013-08-15 22:21:00,66.0,61.0,29.49,East,90,0.0,0.0,85,0.00,,,0.09,,2013-08-16 05:21:00,